| time (UTC) | temp F | wind direction | speed MPH | gust MPH | rain 1hr in | rain 24hr in | rain mn in | humidity % | barometer mb |
| 20260905191306 | 63 | 262 | 7.0 | 11.0 | 0.00 | 0.00 | 0.00 | 100 | 799.7 |
| 20260905184846 | 63 | 251 | 4.0 | 9.0 | 0.00 | 0.00 | 0.00 | 100 | 799.7 |
| 20260905183636 | 64 | 258 | 4.0 | 4.0 | 0.00 | 0.00 | 0.00 | 100 | 799.7 |
| 20260905182423 | 64 | 244 | 6.0 | 12.0 | 0.00 | 0.00 | 0.00 | 100 | 799.7 |
| 20260905181214 | 64 | 246 | 3.0 | 4.0 | 0.00 | 0.00 | 0.00 | 100 | 799.7 |
| 20260905180004 | 65 | 186 | 4.0 | 5.0 | 0.00 | 0.00 | 0.00 | 100 | 799.7 |
| 20260905174754 | 64 | 217 | 2.0 | 4.0 | 0.00 | 0.00 | 0.00 | 100 | 799.7 |
| 20260905173541 | 65 | 276 | 3.0 | 5.0 | 0.00 | 0.00 | 0.00 | 100 | 799.7 |
| 20260905172331 | 65 | 293 | 3.0 | 5.0 | 0.00 | 0.00 | 0.00 | 100 | 799.7 |
| 20260905171120 | 66 | 296 | 6.0 | 10.0 | 0.00 | 0.00 | 0.00 | 100 | 799.7 |
| 20260905164657 | 66 | 214 | 3.0 | 6.0 | 0.00 | 0.00 | 0.00 | 100 | 799.7 |
| 20260905162944 | 68 | 236 | 3.0 | 3.0 | 0.00 | 0.00 | 0.00 | 100 | 799.7 |
| 20260905162433 | 69 | 207 | 4.0 | 6.0 | 0.00 | 0.00 | 0.00 | 100 | 799.7 |
| 20260905161919 | 68 | 130 | 2.0 | 3.0 | 0.00 | 0.00 | 0.00 | 100 | 799.7 |
| 20260905160357 | 68 | 246 | 4.0 | 6.0 | 0.00 | 0.00 | 0.00 | 100 | 799.7 |
| 20260905155846 | 68 | 215 | 3.0 | 4.0 | 0.00 | 0.00 | 0.00 | 100 | 799.7 |
| 20260905155335 | 68 | 244 | 4.0 | 6.0 | 0.00 | 0.00 | 0.00 | 100 | 799.7 |
| 20260905154824 | 69 | 229 | 4.0 | 4.0 | 0.00 | 0.00 | 0.00 | 100 | 799.7 |
| 20260905154324 | 70 | 170 | 3.0 | 7.0 | 0.00 | 0.00 | 0.00 | 100 | 799.7 |
| 20260905153814 | 71 | 215 | 4.0 | 6.0 | 0.00 | 0.00 | 0.00 | 100 | 799.7 |
| 20260905152753 | 71 | 157 | 3.0 | 5.0 | 0.00 | 0.00 | 0.00 | 100 | 799.7 |
| 20260905151731 | 71 | 188 | 2.0 | 2.0 | 0.00 | 0.00 | 0.00 | 100 | 799.7 |
| 20260905151231 | 71 | 230 | 4.0 | 7.0 | 0.00 | 0.00 | 0.00 | 100 | 799.7 |
| 20260905150720 | 71 | 220 | 5.0 | 9.0 | 0.00 | 0.00 | 0.00 | 100 | 799.7 |
| 20260905150210 | 71 | 206 | 3.0 | 7.0 | 0.00 | 0.00 | 0.00 | 100 | 799.7 |
| 20260905145659 | 68 | 195 | 2.0 | 4.0 | 0.00 | 0.00 | 0.00 | 100 | 799.7 |
| 20260905145148 | 72 | 201 | 2.0 | 4.0 | 0.00 | 0.00 | 0.00 | 100 | 799.7 |
| 20260905144138 | 71 | 165 | 3.0 | 4.0 | 0.00 | 0.00 | 0.00 | 100 | 799.7 |
| 20260905143627 | 71 | 198 | 4.0 | 7.0 | 0.00 | 0.00 | 0.00 | 100 | 799.7 |
| 20260905143117 | 71 | 182 | 3.0 | 6.0 | 0.00 | 0.00 | 0.00 | 100 | 799.7 |
| 20260905142606 | 69 | 156 | 5.0 | 5.0 | 0.00 | 0.00 | 0.00 | 100 | 799.7 |
| 20260905142056 | 69 | 184 | 4.0 | 8.0 | 0.00 | 0.00 | 0.00 | 100 | 799.7 |
| 20260905141556 | 69 | 199 | 4.0 | 6.0 | 0.00 | 0.00 | 0.00 | 100 | 799.7 |
| 20260905141044 | 69 | 249 | 4.0 | 7.0 | 0.00 | 0.00 | 0.00 | 100 | 799.7 |
| 20260905140534 | 68 | 251 | 4.0 | 8.0 | 0.00 | 0.00 | 0.00 | 100 | 799.7 |
| 20260905140022 | 68 | 290 | 8.0 | 11.0 | 0.00 | 0.00 | 0.00 | 100 | 799.7 |
| 20260905135512 | 68 | 289 | 7.0 | 11.0 | 0.00 | 0.00 | 0.00 | 100 | 799.7 |
| 20260905135000 | 66 | 281 | 6.0 | 11.0 | 0.00 | 0.00 | 0.00 | 100 | 799.7 |
| 20260905134500 | 67 | 242 | 2.0 | 3.0 | 0.00 | 0.00 | 0.00 | 100 | 799.7 |
| 20260905133947 | 68 | 221 | 3.0 | 7.0 | 0.00 | 0.00 | 0.00 | 100 | 799.7 |
| 20260905133436 | 67 | 273 | 4.0 | 5.0 | 0.00 | 0.00 | 0.00 | 100 | 799.7 |
| 20260905132925 | 66 | 283 | 3.0 | 6.0 | 0.00 | 0.00 | 0.00 | 100 | 799.7 |
| 20260905131914 | 66 | 176 | 2.0 | 2.0 | 0.00 | 0.00 | 0.00 | 100 | 799.7 |
| 20260905130341 | 67 | 288 | 7.0 | 11.0 | 0.00 | 0.00 | 0.00 | 100 | 799.7 |
| 20260905125841 | 67 | 220 | 5.0 | 8.0 | 0.00 | 0.00 | 0.00 | 100 | 799.7 |
| 20260905125331 | 66 | 194 | 4.0 | 8.0 | 0.00 | 0.00 | 0.00 | 100 | 799.7 |
| 20260905124820 | 66 | 272 | 6.0 | 9.0 | 0.00 | 0.00 | 0.00 | 100 | 799.7 |
| 20260905124309 | 67 | 214 | 4.0 | 8.0 | 0.00 | 0.00 | 0.00 | 100 | 799.7 |
| 20260905123758 | 67 | 215 | 4.0 | 6.0 | 0.00 | 0.00 | 0.00 | 100 | 799.7 |
| 20260905123247 | 66 | 290 | 8.0 | 12.0 | 0.00 | 0.00 | 0.00 | 100 | 799.7 |
| 20260905122747 | 67 | 214 | 4.0 | 6.0 | 0.00 | 0.00 | 0.00 | 100 | 799.7 |
| 20260905122236 | 66 | 252 | 5.0 | 9.0 | 0.00 | 0.00 | 0.00 | 100 | 799.7 |
| 20260905121725 | 65 | 275 | 6.0 | 10.0 | 0.00 | 0.00 | 0.00 | 100 | 799.7 |
| 20260905120703 | 65 | 259 | 4.0 | 6.0 | 0.00 | 0.00 | 0.00 | 100 | 799.7 |
| 20260905115652 | 65 | 281 | 8.0 | 12.0 | 0.00 | 0.00 | 0.00 | 100 | 799.7 |
| 20260905115141 | 65 | 311 | 8.0 | 13.0 | 0.00 | 0.00 | 0.00 | 100 | 799.7 |
| 20260905114630 | 65 | 262 | 4.0 | 6.0 | 0.00 | 0.00 | 0.00 | 100 | 799.7 |
| 20260905114119 | 66 | 277 | 9.0 | 14.0 | 0.00 | 0.00 | 0.00 | 100 | 799.7 |
| 20260905113608 | 65 | 279 | 2.0 | 4.0 | 0.00 | 0.00 | 0.00 | 100 | 799.7 |
| 20260905113423 | 65 | 257 | 7.0 | 10.0 | 0.00 | 0.00 | 0.00 | 100 | 799.7 |
| 20260905113108 | 65 | 257 | 7.0 | 10.0 | 0.00 | 0.00 | 0.00 | 100 | 799.7 |
| 20260905112557 | 65 | 280 | 3.0 | 5.0 | 0.00 | 0.00 | 0.00 | 100 | 799.7 |
| 20260905112046 | 65 | 302 | 10.0 | 12.0 | 0.00 | 0.00 | 0.00 | 100 | 799.7 |
| 20260905111534 | 65 | 294 | 8.0 | 9.0 | 0.00 | 0.00 | 0.00 | 100 | 799.7 |
| 20260905111024 | 64 | 226 | 4.0 | 8.0 | 0.00 | 0.00 | 0.00 | 100 | 799.7 |
| 20260905110523 | 63 | 313 | 8.0 | 13.0 | 0.00 | 0.00 | 0.00 | 100 | 799.7 |
| 20260905110009 | 63 | 288 | 8.0 | 10.0 | 0.00 | 0.00 | 0.00 | 100 | 799.7 |
| 20260905105458 | 63 | 280 | 8.0 | 13.0 | 0.00 | 0.00 | 0.00 | 100 | 799.7 |
| 20260905104947 | 64 | 267 | 6.0 | 14.0 | 0.00 | 0.00 | 0.00 | 100 | 799.7 |
| 20260905104447 | 63 | 254 | 8.0 | 12.0 | 0.00 | 0.00 | 0.00 | 100 | 799.7 |
| 20260905103936 | 63 | 273 | 11.0 | 16.0 | 0.00 | 0.00 | 0.00 | 100 | 799.7 |
| 20260905103425 | 63 | 263 | 6.0 | 11.0 | 0.00 | 0.00 | 0.00 | 100 | 799.7 |
| 20260905102914 | 63 | 301 | 5.0 | 9.0 | 0.00 | 0.00 | 0.00 | 100 | 799.7 |
| 20260905102552 | 64 | 265 | 5.0 | 6.0 | 0.00 | 0.00 | 0.00 | 100 | 799.7 |
| 20260905102403 | 64 | 265 | 5.0 | 6.0 | 0.00 | 0.00 | 0.00 | 100 | 799.7 |
| 20260905101852 | 63 | 248 | 3.0 | 4.0 | 0.00 | 0.00 | 0.00 | 100 | 799.7 |
| 20260905101352 | 63 | 167 | 4.0 | 10.0 | 0.00 | 0.00 | 0.00 | 100 | 799.7 |
| 20260905100841 | 63 | 253 | 2.0 | 2.0 | 0.00 | 0.00 | 0.00 | 100 | 799.7 |
| 20260905100330 | 63 | 180 | 3.0 | 5.0 | 0.00 | 0.00 | 0.00 | 100 | 799.7 |
| 20260905095820 | 63 | 250 | 2.0 | 3.0 | 0.00 | 0.00 | 0.00 | 100 | 799.7 |
| 20260905095309 | 62 | 230 | 8.0 | 15.0 | 0.00 | 0.00 | 0.00 | 100 | 800.3 |
| 20260905094809 | 62 | 236 | 6.0 | 10.0 | 0.00 | 0.00 | 0.00 | 100 | 800.3 |
| 20260905094258 | 62 | 107 | 2.0 | 3.0 | 0.00 | 0.00 | 0.00 | 100 | 800.3 |
| 20260905093747 | 62 | 222 | 3.0 | 5.0 | 0.00 | 0.00 | 0.00 | 100 | 801.1 |
| 20260905093237 | 62 | 188 | 3.0 | 3.0 | 0.00 | 0.00 | 0.00 | 100 | 801.1 |
| 20260905092726 | 62 | 150 | 3.0 | 4.0 | 0.00 | 0.00 | 0.00 | 100 | 801.1 |
| 20260905091715 | 62 | 144 | 4.0 | 5.0 | 0.00 | 0.00 | 0.00 | 100 | 801.7 |
| 20260905091205 | 61 | 159 | 4.0 | 9.0 | 0.00 | 0.00 | 0.00 | 100 | 802.2 |
| 20260905090654 | 60 | 112 | 3.0 | 4.0 | 0.00 | 0.00 | 0.00 | 100 | 802.2 |
| 20260905090144 | 60 | 168 | 4.0 | 8.0 | 0.00 | 0.00 | 0.00 | 100 | 802.2 |
| 20260905085633 | 60 | 157 | 3.0 | 6.0 | 0.00 | 0.00 | 0.00 | 100 | 802.4 |
| 20260905085133 | 60 | 137 | 2.0 | 3.0 | 0.00 | 0.00 | 0.00 | 100 | 802.4 |
| 20260905084622 | 60 | 148 | 3.0 | 3.0 | 0.00 | 0.00 | 0.00 | 100 | 802.4 |
| 20260905084112 | 60 | 150 | 0.0 | 0.0 | 0.00 | 0.00 | 0.00 | 100 | |
| 20260905083601 | 59 | 134 | 0.0 | 0.0 | 0.00 | 0.00 | 0.00 | 100 | |
| 20260905083055 | 59 | 147 | 3.0 | 3.0 | 0.00 | 0.00 | 0.00 | 100 | 802.9 |
| 20260905082544 | 59 | 160 | 3.0 | 4.0 | 0.00 | 0.00 | 0.00 | 100 | 802.9 |
| 20260905082033 | 58 | 133 | 2.0 | 2.0 | 0.00 | 0.00 | 0.00 | 100 | 802.9 |
| 20260905081522 | 58 | 158 | 2.0 | 2.0 | 0.00 | 0.00 | 0.00 | 100 | 802.9 |
| 20260905081024 | 58 | 189 | 3.0 | 4.0 | 0.00 | 0.00 | 0.00 | 100 | 802.9 |
| 20260905080510 | 58 | 148 | 2.0 | 2.0 | 0.00 | 0.00 | 0.00 | 100 | 802.9 |
| 20260905075449 | 57 | 164 | 4.0 | 4.0 | 0.00 | 0.00 | 0.00 | 100 | 802.9 |
| 20260905074948 | 57 | 144 | 4.0 | 4.0 | 0.00 | 0.00 | 0.00 | 100 | 802.9 |
| 20260905074437 | 57 | 141 | 4.0 | 4.0 | 0.00 | 0.00 | 0.00 | 100 | 802.9 |
| 20260905073926 | 58 | 182 | 4.0 | 4.0 | 0.00 | 0.00 | 0.00 | 100 | 802.9 |
| 20260905073415 | 59 | 131 | 3.0 | 4.0 | 0.00 | 0.00 | 0.00 | 100 | 802.9 |
| 20260905072904 | 58 | 124 | 2.0 | 2.0 | 0.00 | 0.00 | 0.00 | 100 | 802.9 |
| 20260905072404 | 58 | 201 | 3.0 | 7.0 | 0.00 | 0.00 | 0.00 | 100 | 802.9 |
| 20260905071852 | 58 | 245 | 6.0 | 8.0 | 0.00 | 0.00 | 0.00 | 100 | 802.9 |
| 20260905071343 | 58 | 250 | 7.0 | 12.0 | 0.00 | 0.00 | 0.00 | 100 | 802.9 |
| 20260905070828 | 58 | 225 | 3.0 | 4.0 | 0.00 | 0.00 | 0.00 | 100 | 802.9 |
| 20260905070328 | 58 | 268 | 3.0 | 6.0 | 0.00 | 0.00 | 0.00 | 100 | 802.9 |
| 20260905065817 | 58 | 199 | 3.0 | 6.0 | 0.00 | 0.00 | 0.00 | 100 | 802.9 |
| 20260905065307 | 58 | 150 | 4.0 | 4.0 | 0.00 | 0.00 | 0.00 | 100 | 802.9 |
| 20260905064755 | 58 | 138 | 2.0 | 3.0 | 0.00 | 0.00 | 0.00 | 100 | 802.9 |
| 20260905064244 | 57 | 134 | 2.0 | 3.0 | 0.00 | 0.00 | 0.00 | 100 | 802.9 |
| 20260905063744 | 57 | 109 | 2.0 | 2.0 | 0.00 | 0.00 | 0.00 | 100 | 802.9 |
| 20260905063233 | 57 | 129 | 2.0 | 2.0 | 0.00 | 0.00 | 0.00 | 100 | 802.9 |
| 20260905062722 | 57 | 115 | 2.0 | 2.0 | 0.00 | 0.00 | 0.00 | 100 | 802.9 |
| 20260905062211 | 57 | 118 | 3.0 | 3.0 | 0.00 | 0.00 | 0.00 | 100 | 802.9 |
| 20260905061714 | 57 | 138 | 3.0 | 3.0 | 0.00 | 0.00 | 0.00 | 100 | 802.9 |
| 20260905061156 | 57 | 129 | 2.0 | 3.0 | 0.00 | 0.00 | 0.00 | 100 | 802.9 |
| 20260905060145 | 58 | 121 | 2.0 | 2.0 | 0.00 | 0.00 | 0.00 | 100 | 802.5 |
| 20260905055634 | 58 | 125 | 2.0 | 4.0 | 0.00 | 0.00 | 0.00 | 100 | 802.2 |
| 20260905055123 | 59 | 206 | 2.0 | 4.0 | 0.00 | 0.00 | 0.00 | 100 | 802.2 |
| 20260905054611 | 60 | 322 | 3.0 | 3.0 | 0.00 | 0.00 | 0.00 | 100 | 798.3 |
| 20260905054100 | 60 | 160 | 2.0 | 2.0 | 0.00 | 0.00 | 0.00 | 100 | 798.3 |
| 20260905053600 | 60 | 202 | 4.0 | 7.0 | 0.00 | 0.00 | 0.00 | 100 | 794.5 |
| 20260905052538 | 59 | 125 | 3.0 | 3.0 | 0.00 | 0.00 | 0.00 | 100 | 794.5 |
| 20260905051526 | 59 | 175 | 2.0 | 2.0 | 0.00 | 0.00 | 0.00 | 100 | 794.5 |
| 20260905051015 | 60 | 115 | 2.0 | 2.0 | 0.00 | 0.00 | 0.00 | 100 | 794.5 |
| 20260905050504 | 61 | 135 | 2.0 | 2.0 | 0.00 | 0.00 | 0.00 | 100 | 794.5 |
| 20260905045953 | 61 | 157 | 2.0 | 2.0 | 0.00 | 0.00 | 0.00 | 100 | 794.5 |
| 20260905045442 | 61 | 179 | 2.0 | 2.0 | 0.00 | 0.00 | 0.00 | 100 | 794.5 |
| 20260905044942 | 61 | 192 | 3.0 | 4.0 | 0.00 | 0.00 | 0.00 | 100 | 794.5 |
| 20260905044431 | 61 | 248 | 3.0 | 3.0 | 0.00 | 0.00 | 0.00 | 100 | 794.5 |
| 20260905043920 | 61 | 27 | 3.0 | 3.0 | 0.00 | 0.00 | 0.00 | 100 | 794.5 |
| 20260905043409 | 61 | 199 | 3.0 | 4.0 | 0.00 | 0.00 | 0.00 | 100 | 794.5 |
| 20260905042908 | 61 | 280 | 4.0 | 5.0 | 0.00 | 0.00 | 0.00 | 100 | 794.5 |
| 20260905042359 | 60 | 254 | 4.0 | 7.0 | 0.00 | 0.00 | 0.00 | 100 | 794.5 |
| 20260905040823 | 60 | 135 | 2.0 | 3.0 | 0.00 | 0.00 | 0.00 | 100 | 794.5 |
| 20260905040322 | 61 | 129 | 2.0 | 2.0 | 0.00 | 0.00 | 0.00 | 100 | 794.5 |
| 20260905035812 | 61 | 122 | 2.0 | 2.0 | 0.00 | 0.00 | 0.00 | 100 | 794.5 |
| 20260905035301 | 62 | 115 | 2.0 | 2.0 | 0.00 | 0.00 | 0.00 | 100 | 794.5 |
| 20260905034750 | 62 | 90 | 2.0 | 2.0 | 0.00 | 0.00 | 0.00 | 100 | 794.5 |
| 20260905033739 | 62 | 108 | 2.0 | 2.0 | 0.00 | 0.00 | 0.00 | 100 | 794.5 |
| 20260905033225 | 62 | 297 | 2.0 | 3.0 | 0.00 | 0.00 | 0.00 | 100 | 794.5 |
| 20260905032212 | 62 | 190 | 2.0 | 2.0 | 0.00 | 0.00 | 0.00 | 100 | 791.0 |
| 20260905031701 | 62 | 298 | 2.0 | 3.0 | 0.00 | 0.00 | 0.00 | 100 | 791.0 |
| 20260905031149 | 62 | 18 | 3.0 | 4.0 | 0.00 | 0.00 | 0.00 | 100 | 791.0 |
| 20260905030639 | 62 | 235 | 2.0 | 2.0 | 0.00 | 0.00 | 0.00 | 100 | 791.0 |
| 20260905030138 | 62 | 235 | 2.0 | 2.0 | 0.00 | 0.00 | 0.00 | 100 | 791.0 |
| 20260905025627 | 62 | 191 | 2.0 | 2.0 | 0.00 | 0.00 | 0.00 | 100 | 791.0 |
| 20260905025116 | 62 | 193 | 2.0 | 3.0 | 0.00 | 0.00 | 0.00 | 100 | 791.0 |
| 20260905024606 | 62 | 177 | 3.0 | 3.0 | 0.00 | 0.00 | 0.00 | 100 | 791.0 |
| 20260905024105 | 62 | 80 | 3.0 | 3.0 | 0.00 | 0.00 | 0.00 | 100 | 791.0 |
| 20260905023554 | 61 | 110 | 2.0 | 2.0 | 0.00 | 0.00 | 0.00 | 100 | 791.0 |
| 20260905023046 | 61 | 104 | 2.0 | 2.0 | 0.00 | 0.00 | 0.00 | 100 | 791.0 |
| 20260905022532 | 61 | 97 | 2.0 | 2.0 | 0.00 | 0.00 | 0.00 | 100 | 791.0 |
| 20260905022021 | 61 | 97 | 2.0 | 2.0 | 0.00 | 0.00 | 0.00 | 100 | 791.0 |
| 20260905021521 | 60 | 101 | 2.0 | 3.0 | 0.00 | 0.00 | 0.00 | 100 | 791.0 |
| 20260905021010 | 60 | 108 | 2.0 | 2.0 | 0.00 | 0.00 | 0.00 | 100 | 791.0 |
| 20260905020459 | 60 | 91 | 2.0 | 2.0 | 0.00 | 0.00 | 0.00 | 100 | 791.0 |
| 20260905015948 | 60 | 57 | 3.0 | 3.0 | 0.00 | 0.00 | 0.00 | 100 | 791.0 |
| 20260905015448 | 60 | 66 | 2.0 | 2.0 | 0.00 | 0.00 | 0.00 | 100 | 791.0 |
| 20260905014937 | 61 | 69 | 2.0 | 2.0 | 0.00 | 0.00 | 0.00 | 100 | 791.0 |
| 20260905014427 | 61 | 52 | 2.0 | 2.0 | 0.00 | 0.00 | 0.00 | 100 | 787.4 |
| 20260905013915 | 61 | 24 | 3.0 | 4.0 | 0.00 | 0.00 | 0.00 | 100 | 787.4 |
| 20260905013406 | 61 | 51 | 2.0 | 4.0 | 0.00 | 0.00 | 0.00 | 100 | 787.4 |
| 20260905012902 | 61 | 12 | 3.0 | 4.0 | 0.00 | 0.00 | 0.00 | 100 | 787.4 |
| 20260905012352 | 62 | 287 | 7.0 | 10.0 | 0.00 | 0.00 | 0.00 | 100 | 787.4 |
| 20260905011839 | 63 | 296 | 7.0 | 10.0 | 0.00 | 0.00 | 0.00 | 100 | 787.4 |
| 20260905011329 | 63 | 299 | 8.0 | 12.0 | 0.00 | 0.00 | 0.00 | 100 | 787.4 |
| 20260905010828 | 63 | 343 | 6.0 | 7.0 | 0.00 | 0.00 | 0.00 | 100 | 787.4 |
| 20260905010317 | 63 | 317 | 6.0 | 9.0 | 0.00 | 0.00 | 0.00 | 100 | 787.4 |
| 20260905005805 | 63 | 302 | 6.0 | 9.0 | 0.00 | 0.00 | 0.00 | 100 | 787.4 |
| 20260905005251 | 63 | 308 | 8.0 | 11.0 | 0.00 | 0.00 | 0.00 | 100 | 787.4 |
| 20260905004751 | 64 | 316 | 9.0 | 13.0 | 0.00 | 0.00 | 0.00 | 100 | 787.4 |
| 20260905004240 | 64 | 315 | 8.0 | 12.0 | 0.00 | 0.00 | 0.00 | 100 | 787.4 |
| 20260905002923 | 65 | 293 | 8.0 | 10.0 | 0.00 | 0.00 | 0.00 | 100 | 787.4 |
| 20260905001712 | 66 | 301 | 7.0 | 9.0 | 0.00 | 0.00 | 0.00 | 100 | 787.4 |
| 20260905000502 | 66 | 310 | 7.0 | 11.0 | 0.00 | 0.00 | 0.00 | 100 | 787.4 |
| 20260904235251 | 66 | 300 | 9.0 | 11.0 | 0.00 | 0.00 | 0.00 | 100 | 787.4 |
| 20260904234038 | 67 | 283 | 8.0 | 12.0 | 0.00 | 0.00 | 0.00 | 100 | 787.4 |
| 20260904232836 | 68 | 300 | 12.0 | 14.0 | 0.00 | 0.00 | 0.00 | 100 | 787.4 |
| 20260904231626 | 69 | 300 | 11.0 | 15.0 | 0.00 | 0.00 | 0.00 | 100 | 787.4 |
| 20260904230415 | 71 | 293 | 16.0 | 22.0 | 0.00 | 0.00 | 0.00 | 100 | 787.4 |
| 20260904225204 | 73 | 192 | 3.0 | 3.0 | 0.00 | 0.00 | 0.00 | 100 | 787.4 |
| 20260904223952 | 74 | 155 | 2.0 | 4.0 | 0.00 | 0.00 | 0.00 | 100 | 787.4 |
| 20260904222742 | 74 | 130 | 2.0 | 2.0 | 0.00 | 0.00 | 0.00 | 100 | 787.4 |
| 20260904221532 | 74 | 157 | 2.0 | 2.0 | 0.00 | 0.00 | 0.00 | 100 | 787.4 |
| 20260904220322 | 74 | 152 | 3.0 | 4.0 | 0.00 | 0.00 | 0.00 | 100 | 787.4 |
| 20260904215109 | 74 | 150 | 2.0 | 2.0 | 0.00 | 0.00 | 0.00 | 100 | 787.4 |
| 20260904213907 | 74 | 138 | 2.0 | 3.0 | 0.00 | 0.00 | 0.00 | 100 | 787.4 |
| 20260904212656 | 74 | 143 | 2.0 | 3.0 | 0.00 | 0.00 | 0.00 | 100 | 787.4 |
| 20260904211446 | 74 | 146 | 2.0 | 2.0 | 0.00 | 0.00 | 0.00 | 100 | 787.4 |
| 20260904210233 | 74 | 144 | 5.0 | 5.0 | 0.00 | 0.00 | 0.00 | 100 | 787.4 |
| 20260904205023 | 74 | 139 | 3.0 | 4.0 | 0.00 | 0.00 | 0.00 | 100 | 787.4 |
| 20260904203813 | 74 | 151 | 2.0 | 4.0 | 0.00 | 0.00 | 0.00 | 100 | 787.4 |
| 20260904202602 | 73 | 161 | 4.0 | 9.0 | 0.00 | 0.00 | 0.00 | 100 | 787.4 |
| 20260904201349 | 74 | 156 | 2.0 | 5.0 | 0.00 | 0.00 | 0.00 | 100 | 787.4 |
| 20260904200139 | 74 | 153 | 3.0 | 6.0 | 0.00 | 0.00 | 0.00 | 100 | 787.4 |
| 20260904193719 | 74 | 167 | 3.0 | 6.0 | 0.00 | 0.00 | 0.00 | 100 | 787.4 |
| 20260904192506 | 73 | 158 | 4.0 | 6.0 | 0.00 | 0.00 | 0.00 | 100 | 787.4 |